Regional Weather Roundup
Issued by NWS

Home | Current Version | Previous Version | Text Only | Print | Product List | Glossary On
Versions: 1 2 3 4 5 6 7 8 9 10 11 12 13 14 15 16 17 18 19 20 21 22 23 24 25 26 27 28 29 30 31 32 33 34 35 36 37 38 39 40 41 42 43 44 45 46 47 48 49 50
704
ASUS44 KJAN 221410
RWRMS

MISSISSIPPI HOURLY WEATHER ROUNDUP
NATIONAL WEATHER SERVICE JACKSON MS
900 AM CDT SUN OCT 22 2017

NOTE: "FAIR: INDICATES FEW OR NO CLOUDS BELOW 12,000 FEET WITH NO
SIGNIFICANT WEATHER AND/OR OBSTRUCTIONS TO VISIBILITY.

MSZ001>002-007>008-010>013-018>021-025>028-034>036-221500-
NORTHWEST MISSISSIPPI

CITY           SKY/WX    TMP DP  RH WIND       PRES   REMARKS
BATESVILLE     CLOUDY    71  63  77 SE8G16    30.02S
CLARKSDALE       N/A     64  64 100 W10       30.02R FOG
CLEVELAND      CLOUDY    63  63 100 W10G20    30.02S
GREENWOOD      CLOUDY    73  66  78 SE8       30.00S
GREENVILLE     RAIN      62  58  86 N9        30.03R
OLIVE BRANCH   PTSUNNY  N/A N/A N/A S12       29.98S
TUNICA         RAIN     N/A N/A N/A SW8       30.01R
WINONA         FAIR      70  67  90 CALM      30.02R
$$

MSZ003>006-009-014>017-022>024-029>033-037>039-221500-
NORTHEAST MISSISSIPPI

CITY           SKY/WX    TMP DP  RH WIND       PRES   REMARKS
COLUMBUS AFB   CLOUDY    69  64  83 SE14G21   30.07F
CORINTH        FAIR      70  61  73 SE16G23   30.05F
GOLDN TRIANGLE CLOUDY    69  63  81 SE16G22   30.08F
STARKVILLE     FAIR      68  63  83 SE12      30.07S
TUPELO         CLOUDY    71  61  70 SE17G23   30.06F
$$

MSZ040-058-221500-
CENTRAL MISSISSIPPI

CITY           SKY/WX    TMP DP  RH WIND       PRES   REMARKS
JACKSON INTL   CLOUDY    73  69  87 SE7       30.02R
JACKSON HAWKNS CLOUDY    72  69  90 S3        30.02R
MADISON        FAIR      68  64  88 S6        30.02R
MERIDIAN KEY   PTSUNNY   70  66  87 S8        30.09R
MERIDIAN NAS   PTSUNNY   69  64  84 SE12      30.09R
RAYMOND        FAIR      73  70  88 CALM      30.02R
VICKSBURG VKS  PTSUNNY   64  61  88 NW23G35   30.08R FOG
$$

MSZ059>079-221500-
SOUTH MISSISSIPPI

CITY           SKY/WX    TMP DP  RH WIND       PRES   REMARKS
HATTIESBURG    HVY RAIN  67  67 100 CALM      30.11F FOG
LAUREL         CLOUDY    67  67 100 SW6       30.11R
MCCOMB         LGT RAIN  68  65  90 SE7       30.05R FOG
NATCHEZ        NOT AVBL
PINE BELT      CLOUDY    66  65  96 SE7       30.10R THUNDER FOG
$$

MSZ080>082-221500-
COASTAL MISSISSIPPI

CITY           SKY/WX    TMP DP  RH WIND       PRES   REMARKS
BAY ST LOUIS   TSTM      73  72  94 W9        30.06R
BILOXI         TSTM      73  72  94 E12       30.03S
PASCAGOULA     CLOUDY    73  70  90 NE5       30.06R
GULFPORT       TSTM      73  72  96 VRB6      30.04R FOG
$$

LAZ007>009-015>016-023>026-221500-
NORTHEAST LOUISIANA

CITY           SKY/WX    TMP DP  RH WIND       PRES   REMARKS
BASTROP        CLOUDY    60  59  97 W3        30.08S
TALLULAH/VBURG RAIN      62  62 100 NW12G25   30.08R FOG
VIDALIA          N/A    N/A N/A N/A MISG      30.12R
$$




USA.gov is the U.S. government's official web portal to all federal, state and local government web resources and services.